Location: Bastogne Gables
(35.1554°N, 78.9900°W)
Time: 12:45:51
(UTC+00:00)

AQUARIUS - Pass Details

Date: 07 March 2021
Orbit: 650 x 653 km, 98.0° (Epoch: 13 April)

Event Time Altitude Azimuth Distance (km) Brightness Sun altitude
Rises 00:01:15 0° 209° (SSW) 2,959 8.0 -10.0°
Reaches altitude 10° 00:04:24 10° 233° (SW) 2,054 7.6 -10.7°
Maximum altitude 00:06:52 15° 267° (W) 1,772 7.8 -11.2°
Drops below altitude 10° 00:09:21 10° 301° (WNW) 2,062 7.8 -11.7°
Sets 00:12:32 0° 325° (NW) 2,978 8.1 -12.3°
